Location: ??????
(55.2000°N, 38.3000°E)
Time: 00:39:14
(UTC+00:00)

NOSS 2-1 (D) - Pass Details

Date: 15 November 2025
Orbit: 374 x 1680 km, 63.3° (Epoch: 12 December)

Event Time Altitude Azimuth Distance (km) Brightness Sun altitude
Exits shadow 03:47:10 13° 315° (NW) 1,208 4.5 -10.2°
Maximum altitude 03:48:45 19° 354° (N) 992 4.4 -10.0°
Drops below altitude 10° 03:51:06 10° 43° (NE) 1,461 5.8 -9.7°
Sets 03:53:36 0° 62° (ENE) 2,398 7.3 -9.3°
